TimePST,TemperatureF,Dew PointF,Humidity,Sea Level PressureIn,VisibilityMPH,Wind Direction,Wind SpeedMPH,Gust SpeedMPH,PrecipitationIn,Events,Conditions,WindDirDegrees,DateUTC
12:58 AM,34.0,29.3,83,30.09,10.0,Calm,Calm,-,N/A,,Clear,0,2012-12-29 08:58:00
1:58 AM,35.1,29.1,79,30.09,10.0,NNW,2.3,-,N/A,,Clear,340,2012-12-29 09:58:00
2:58 AM,32.7,28.2,83,30.08,10.0,Calm,Calm,-,N/A,,Partly Cloudy,0,2012-12-29 10:58:00
3:58 AM,33.3,28.6,83,30.06,10.0,SSW,2.3,-,N/A,,Clear,210,2012-12-29 11:58:00
4:58 AM,36.5,28.4,72,30.06,10.0,South,2.3,-,N/A,,Clear,190,2012-12-29 12:58:00
5:58 AM,32.0,27.1,82,30.09,10.0,SE,3.5,-,N/A,,Clear,130,2012-12-29 13:58:00
6:58 AM,29.5,26.6,89,30.09,10.0,North,1.2,-,N/A,,Clear,350,2012-12-29 14:58:00
7:58 AM,37.9,30.7,75,30.09,10.0,Calm,Calm,-,N/A,,Clear,0,2012-12-29 15:58:00
8:58 AM,44.4,32.4,63,30.09,10.0,ENE,1.2,-,N/A,,Scattered Clouds,70,2012-12-29 16:58:00
9:58 AM,47.5,35.8,64,30.07,10.0,SE,5.8,-,N/A,,Mostly Cloudy,140,2012-12-29 17:58:00
10:58 AM,51.1,38.3,62,30.04,10.0,SSE,8.1,-,N/A,,Mostly Cloudy,160,2012-12-29 18:58:00
11:58 AM,51.6,39.0,62,30.00,10.0,SE,6.9,-,N/A,,Overcast,140,2012-12-29 19:58:00
12:26 PM,51.8,39.2,62,29.98,10.0,South,8.1,-,N/A,,Light Drizzle,170,2012-12-29 20:26:00
12:43 PM,50.0,41.0,71,29.98,10.0,SW,4.6,-,N/A,Rain,Light Rain,230,2012-12-29 20:43:00
12:58 PM,49.3,42.6,78,30.00,10.0,WNW,13.8,-,0.00,Rain,Light Rain,290,2012-12-29 20:58:00
1:08 PM,46.4,42.8,87,29.99,9.0,West,10.4,-,N/A,Rain,Light Rain,280,2012-12-29 21:08:00
1:13 PM,46.4,42.8,87,29.99,9.0,West,5.8,-,N/A,Rain,Light Rain,280,2012-12-29 21:13:00
1:33 PM,44.6,44.6,100,29.98,6.0,West,2.3,-,N/A,Rain,Light Rain,270,2012-12-29 21:33:00
1:58 PM,45.5,44.2,95,30.00,7.0,NNW,2.3,-,0.05,Rain,Light Rain,340,2012-12-29 21:58:00
2:03 PM,46.4,44.6,93,29.98,8.0,North,3.5,-,N/A,Rain,Light Rain,360,2012-12-29 22:03:00
2:18 PM,46.4,44.6,93,29.98,10.0,Calm,Calm,-,N/A,,Mostly Cloudy,0,2012-12-29 22:18:00
2:28 PM,46.4,44.6,93,29.98,10.0,NNW,3.5,-,N/A,,Mostly Cloudy,340,2012-12-29 22:28:00
2:41 PM,46.4,44.6,93,29.97,10.0,NNW,3.5,-,N/A,Rain,Light Rain,340,2012-12-29 22:41:00
2:58 PM,46.8,45.0,93,30.02,10.0,North,4.6,-,0.00,Rain,Light Rain,350,2012-12-29 22:58:00
3:40 PM,46.4,44.6,93,29.97,8.0,NNE,2.3,-,N/A,Rain,Light Rain,20,2012-12-29 23:40:00
3:50 PM,46.4,44.6,93,29.97,5.0,NE,2.3,-,N/A,Rain,Light Rain,50,2012-12-29 23:50:00
3:58 PM,46.8,45.1,94,29.99,8.0,NE,2.3,-,0.02,Rain,Light Rain,40,2012-12-29 23:58:00
4:08 PM,46.4,44.6,93,29.97,10.0,East,3.5,-,N/A,Rain,Light Rain,80,2012-12-30 00:08:00
4:28 PM,46.4,44.6,93,29.97,8.0,East,3.5,-,N/A,,Light Drizzle,100,2012-12-30 00:28:00
4:35 PM,46.4,44.6,93,29.97,9.0,ESE,4.6,-,N/A,Rain,Light Rain,110,2012-12-30 00:35:00
4:58 PM,46.2,45.7,98,29.99,10.0,Calm,Calm,-,0.02,Rain,Light Rain,0,2012-12-30 00:58:00
5:08 PM,46.4,46.4,100,29.97,6.0,NNE,2.3,-,N/A,Rain,Light Rain,20,2012-12-30 01:08:00
5:38 PM,46.4,44.6,93,29.97,10.0,ENE,3.5,-,N/A,Rain,Light Rain,60,2012-12-30 01:38:00
5:48 PM,46.4,44.6,93,29.97,10.0,NE,5.8,-,N/A,Rain,Light Rain,40,2012-12-30 01:48:00
5:53 PM,46.4,44.6,93,29.97,10.0,NE,2.3,-,N/A,Rain,Light Rain,50,2012-12-30 01:53:00
5:58 PM,45.7,45.5,99,29.99,10.0,NNE,1.2,-,0.06,Rain,Light Rain,30,2012-12-30 01:58:00
6:26 PM,46.4,46.4,100,29.98,10.0,Calm,Calm,-,N/A,,Mostly Cloudy,0,2012-12-30 02:26:00
6:36 PM,46.4,46.4,100,29.98,10.0,NE,1.2,-,N/A,Rain,Light Rain,40,2012-12-30 02:36:00
6:42 PM,46.4,46.4,100,29.98,10.0,Calm,Calm,-,N/A,Rain,Light Rain,0,2012-12-30 02:42:00
6:58 PM,45.5,45.5,100,30.01,10.0,NE,2.3,-,0.04,,Mostly Cloudy,40,2012-12-30 02:58:00
7:21 PM,44.6,44.6,100,29.98,10.0,Variable,1.2,-,N/A,,Mostly Cloudy,0,2012-12-30 03:21:00
7:58 PM,43.7,43.7,100,30.00,10.0,NNW,1.2,-,0.00,,Light Drizzle,330,2012-12-30 03:58:00
8:03 PM,44.6,44.6,100,29.98,10.0,Calm,Calm,-,N/A,,Mostly Cloudy,0,2012-12-30 04:03:00
8:13 PM,44.6,44.6,100,29.99,10.0,Calm,Calm,-,N/A,,Mostly Cloudy,0,2012-12-30 04:13:00
8:24 PM,44.6,44.6,100,29.99,10.0,Calm,Calm,-,N/A,Rain,Light Rain,0,2012-12-30 04:24:00
8:54 PM,44.6,44.6,100,29.99,10.0,Calm,Calm,-,N/A,,Mostly Cloudy,0,2012-12-30 04:54:00
8:58 PM,44.6,44.6,100,30.00,10.0,Calm,Calm,-,0.00,,Mostly Cloudy,0,2012-12-30 04:58:00
9:58 PM,41.5,41.5,100,30.00,10.0,Calm,Calm,-,N/A,,Mostly Cloudy,0,2012-12-30 05:58:00
10:48 PM,42.8,42.8,100,29.99,10.0,Calm,Calm,-,N/A,,Scattered Clouds,0,2012-12-30 06:48:00
10:58 PM,42.6,42.6,100,29.99,10.0,Calm,Calm,-,N/A,,Scattered Clouds,0,2012-12-30 06:58:00
11:48 PM,37.4,37.4,100,29.98,7.0,Calm,Calm,-,N/A,,Mostly Cloudy,0,2012-12-30 07:48:00
11:58 PM,38.1,38.1,100,29.99,5.0,Calm,Calm,-,N/A,,Mostly Cloudy,0,2012-12-30 07:58:00